Погода в Занулье

Россия / Республика Коми     60°38′46″N   49°23′25″E
темп.,
°C
ветер,
м/с
пор.,
м/с
влажн.,
%
обл.,
%
осадки,
мм/ч
давл.,
гПа
погр.,
м
16 мая, вс
вс1600:00+15юв2697100 9.2 1012188
03:00+14ю31295100 9.3 1011348
06:00+17ююз413905 0.0 1010537
09:00+21юз5126863 0.0 10111181
12:00+23юз611470 0.0 10102251
15:00+24юз511470 0.0 10102436
18:00+21юз511560 0.0 10081652
21:00+16юз310810 0.1 1010264
17 мая, пн
пн1700:00+13ююз38930 0.1 1010181
03:00+12юз310931 0.1 1011286
06:00+15зюз498321 0.0 1012566
09:00+18зюз586681 0.3 10131324
12:00+18зсз5867100 0.4 10141363
15:00+16зсз4768100 0.5 10161294
18:00+16сз466835 0.1 10181005
21:00+14с377861 0.1 1019482
18 мая, вт
вт1800:00+10с2795100 0.0 1021158
03:00+9ссв11968 0.0 102220
06:00+12всв23805 0.0 1023385
09:00+16в23587 0.0 1023819
12:00+20вюв224511 0.0 10221201
15:00+22юв23405 0.0 10221409
18:00+20юв235229 0.0 1021126
21:00+14юв257151 0.0 102279
19 мая, ср
ср1900:00+12ююв268061 0.0 1022113
03:00+11ююв278274 0.0 1022133
06:00+15ю3669100 0.0 1022215
09:00+21ю4652100 0.0 1021654
12:00+24ю4539100 0.0 10201169
15:00+25ю4538100 0.0 10191332
18:00+22ююв255397 0.0 1018156
21:00+17ю37695 0.0 1018120
20 мая, чт
чт2000:00+14ю28765 0.0 1018137
03:00+13ю26785 0.0 1018100
06:00+17ююз36635 0.0 1018235
09:00+23ю35485 0.0 1017828
12:00+26ююз46335 0.0 10161878
15:00+27ююз46290 0.0 10152149
18:00+24ю36430 0.0 1014276
21:00+17ю311624 0.0 1014201